Flag for Luxembourg Weather past 2 weeks in Differdange, Luxembourg

Now
72 °F

Passing clouds.


Feels Like: 74 °F
Forecast: 54 / 65 °F
Wind: 5 mph from Northwest

Location: Luxembourg Airport

Current Time: Sep 1, 2015 at 12:16:11 AM

Latest Report: Aug 31, 2015 at 11:20 PM


Visibility: N/A

Pressure: 29.89 "Hg

Humidity: 73%

Dew point: 63 °F

Location of DifferdangeLocation

Historic Weather in Differdange — Graph

°F

Differdange temperature yesterday

Maximum temperature yesterday: 88 °F (at 3:20 PM)
Minimum temperature yesterday: 66 °F (at 6:50 AM)
Average temperature yesterday: 77 °F

Past Weeks' High & Low Weather Summary

 TemperatureHumidityPressure
High90 °F (Aug 30, 5:20 PM)100% (Aug 17, 6:20 PM)30.27 "Hg (Aug 17, 6:20 PM)
Low48 °F (Aug 19, 3:50 AM)27% (Aug 31, 3:20 PM)29.62 "Hg (Aug 24, 12:20 PM)
Average65 °F70%30.01 "Hg
* Reported Aug 16 10:20 PM — Aug 31 10:50 PM, Differdange, Weather by CustomWeather, © 2015

Note: Actual official high and low records may vary slightly from our data, if they occured in-between our weather recording intervals... More about our weather records

Advertising

Differdange weather history for previous 24 hours

 ConditionsComfort  
Time TempWeatherWind HumidityBarometerVisibility
10:50 PM
Mon, Aug 31
73 °FPassing clouds.7 mph69%29.89 "HgN/A
10:20 PM75 °FClear.7 mph61%29.89 "Hg10 mi
9:50 PM77 °FPassing clouds.5 mph57%29.89 "HgN/A
9:20 PM77 °FSunny.10 mph54%29.89 "Hg10 mi
8:50 PM79 °FSunny.13 mph51%29.89 "Hg10 mi
8:20 PM79 °FPassing clouds.15 mph48%29.86 "HgN/A
7:50 PM81 °FSunny.12 mph42%29.86 "Hg10 mi
7:20 PM82 °FSunny.10 mph40%29.86 "Hg10 mi
6:50 PM84 °FPassing clouds.15 mph35%29.86 "HgN/A
6:20 PM84 °FSunny.15 mph35%29.86 "Hg10 mi
5:50 PM86 °FPassing clouds.16 mph31%29.86 "HgN/A
5:20 PM88 °FPassing clouds.16 mph29%29.86 "HgN/A
4:50 PM88 °FPassing clouds.15 mph29%29.86 "HgN/A
4:20 PM88 °FPassing clouds.14 mph29%29.86 "HgN/A
3:50 PM88 °FPassing clouds.14 mph29%29.86 "HgN/A
3:20 PM88 °FPassing clouds.14 mph27%29.89 "HgN/A
2:50 PM86 °FPassing clouds.15 mph29%29.89 "HgN/A
2:20 PM84 °FPassing clouds.10 mph31%29.89 "HgN/A
1:50 PM84 °FPassing clouds.14 mph33%29.89 "HgN/A
1:20 PM84 °FPassing clouds.14 mph33%29.92 "HgN/A
12:50 PM82 °FPassing clouds.12 mph35%29.92 "HgN/A
12:20 PM81 °FPassing clouds.12 mph39%29.95 "HgN/A
11:50 AM79 °FPassing clouds.9 mph45%29.95 "HgN/A
11:20 AM77 °FPassing clouds.9 mph44%29.95 "HgN/A
10:50 AM75 °FPassing clouds.9 mph50%29.95 "HgN/A
10:20 AM73 °FPassing clouds.9 mph53%29.95 "HgN/A
9:50 AM73 °FPassing clouds.9 mph53%29.95 "HgN/A
9:20 AM72 °FPassing clouds.9 mph53%29.98 "HgN/A
8:50 AM70 °FPassing clouds.8 mph60%29.95 "HgN/A
8:20 AM70 °FPassing clouds.7 mph60%29.95 "HgN/A
7:50 AM68 °FPassing clouds.6 mph64%29.95 "HgN/A
7:20 AM66 °FClear.7 mph73%29.98 "Hg10 mi
6:50 AM66 °FPassing clouds.7 mph73%29.98 "HgN/A
6:20 AM68 °FPassing clouds.5 mph69%29.98 "HgN/A
5:50 AM70 °FClear.1 mph64%29.98 "Hg10 mi
5:20 AM70 °FClear.3 mph64%29.98 "Hg10 mi
4:50 AM72 °FClear.3 mph65%29.98 "Hg10 mi
4:20 AM72 °FMild.2 mph61%29.98 "HgN/A
3:50 AM72 °FMild.3 mph61%29.98 "HgN/A
3:20 AM72 °FMild.3 mph61%29.98 "HgN/A
2:50 AM73 °FMild.1 mph57%29.98 "HgN/A
2:20 AM73 °FMild.No wind61%30.01 "HgN/A
1:50 AM73 °FClear.2 mph65%30.01 "Hg10 mi
1:20 AM73 °FClear.No wind69%30.01 "Hg10 mi
12:50 AM73 °FClear.2 mph65%30.01 "Hg10 mi
12:20 AM75 °FClear.3 mph61%30.01 "Hg10 mi
Weather by CustomWeather, © 2015

See weather overviewHow to use our weather pages